SCP
1 1 1 1 1 1 2 2 3 3 2 2 1 1 1 1 1 1 1 1 1 1 1 1 1 1 1 1 1 1 1 1 1 1 1 1 1 1 1 1 0 0 0
1 1 1 1 1 1 2 2 3 3 2 2 1 1 1 1 1 1 1 1 1 1 1 1 1 1 1 1 1 1 1 1 1 1 1 1 1 1 1 1 1 1 1
1 1 1 1 1 1 1 2 2 2 2 2 1 1 1 1 1 1 1 1 1 1 1 1 1 1 1 1 1 1 1 1 1 1 1 1 1 1 1 1 1 1 1
1 1 1 1 1 1 1 1 1 2 1 1 1 1 1 1 1 1 1 1 1 1 1 1 1 1 1 1 1 1 1 1 1 1 1 1 1 1 1 1 1 1 1
1 1 1 1 1 1 1 1 1 1 1 1 1 1 1 1 1 1 1 1 1 1 1 1 1 1 1 1 1 1 1 1 1 1 1 1 1 1 1 1 1 1 1
1 1 1 1 1 2 2 1 1 1 0 0 0 0 1 1 1 1 1 1 1 1 1 1 1 1 1 1 1 1 1 1 1 1 1 1 1 1 1 1 1 1 1
1 1 1 1 1 1 1 1 1 1 0 0 0 0 1 1 1 1 1 1 1 1 1 1 1 1 1 1 1 1 1 1 1 1 1 1 1 1 1 1 1 1 1
1 1 1 1 1 1 1 1 1 1 0 0 0 0 0 1 1 0 0 1 1 1 1 1 1 1 1 1 1 1 1 1 1 1 1 1 1 1 1 1 1 1 1
1 1 1 1 1 1 1 1 1 1 1 1 1 0 0 0 0 0 0 0 0 1 1 1 0 0 0 0 0 1 1 1 1 1 1 1 1 1 1 2 1 1 1
1 1 1 0 0 0 0 0 1 1 1 1 1 1 0 0 0 0 0 0 0 0 0 0 0 0 0 0 0 0 0 0 1 1 1 1 1 1 1 1 1 1 1
0 0 0 0 0 0 0 0 1 1 1 1 1 1 1 1 0 0 0 0 0 0 0 0 0 0 0 0 0 0 0 0 0 0 1 1 1 1 1 1 1 1 1
0 0 0 0 0 0 0 0 0 1 1 0 0 0 1 1 1 0 0 0 0 0 0 0 0 0 0 0 0 0 0 0 0 0 0 1 1 1 1 1 1 1 1
0 0 0 0 0 0 0 0 0 1 0 0 0 0 0 1 1 0 0 0 0 0 0 1 1 1 0 0 0 0 0 0 0 0 0 0 0 0 0 0 0 1 1
0 0 0 0 0 0 0 0 0 0 0 0 0 0 0 0 0 0 0 0 0 0 0 1 1 1 1 0 0 0 0 0 0 0 0 0 0 0 0 0 0 0 0
0 0 0 0 0 0 0 0 0 0 0 0 0 0 0 0 0 0 0 0 0 0 0 1 1 1 1 0 0 0 0 0 0 0 0 0 0 0 0 0 0 0 0
0 0 0 0 0 0 0 0 0 0 0 0 0 0 0 0 0 0 0 0 0 0 0 0 1 1 1 0 0 0 0 0 0 0 0 0 0 0 0 0 0 0 0
0 0 0 0 0 0 0 0 0 0 0 0 0 0 0 0 0 0 0 0 0 0 0 0 0 1 1 0 0 0 0 0 0 0 0 0 0 0 0 0 0 0 0
0 0 0 0 0 0 0 0 0 0 0 0 0 0 0 0 0 0 0 0 0 0 0 0 0 0 0 0 0 0 0 0 0 0 0 0 0 0 0 0 0 0 0
0 0 0 0 0 0 0 0 0 0 0 0 0 0 0 0 0 0 0 0 0 0 0 0 0 0 0 0 0 0 0 0 0 0 0 0 0 0 0 0 0 0 0
0 0 0 0 0 0 0 0 0 0 0 0 0 0 0 0 0 0 0 0 0 0 0 0 0 0 0 0 0 0 0 0 0 0 0 0 0 0 0 0 0 0 0
0 0 0 0 0 0 0 0 0 0 0 0 0 0 0 0 0 0 0 0 0 0 0 0 0 0 0 0 0 0 0 0 0 0 0 0 0 0 0 0 0 0 0
0 0 0 0 0 0 0 0 0 0 0 0 0 0 0 0 0 0 0 0 0 0 0 0 0 0 0 0 0 0 0 0 0 0 0 0 0 0 0 0 0 0 0
0 0 0 0 0 0 0 0 0 0 0 0 0 0 0 0 0 0 0 0 0 0 0 0 0 0 0 0 0 0 0 0 0 0 0 0 0 0 0 0 0 0 0
0 0 0 0 0 0 0 0 0 0 0 0 0 0 0 0 0 0 0 0 0 0 0 0 0 0 0 0 0 0 0 0 0 0 0 0 0 0 0 0 0 0 0
0 0 0 0 0 0 0 0 0 0 0 0 0 0 0 0 0 0 0 0 0 0 0 0 0 0 0 0 0 0 0 0 0 0 0 0 0 0 0 0 0 0 0
0 0 0 0 0 0 0 0 0 0 0 0 0 0 0 0 0 0 0 0 0 0 0 0 0 0 0 0 0 0 0 0 0 0 0 0 0 0 0 0 0 0 0
Wind_Speed
1 1 1 1 1 1 1 1 1 1 1 1 2 2 2 3 2 2 2 5 6 6 8 9 9 10 10 10 10 9 9 10 9 10 10 10 9 9 9 9 9 9 9
1 1 1 1 2 2 2 2 2 2 1 1 2 2 2 2 2 2 2 3 5 6 7 8 8 8 9 10 10 10 10 10 10 9 10 10 10 10 10 10 10 9 9
1 1 1 1 2 1 1 1 1 1 1 1 1 2 1 1 1 2 2 2 2 4 5 6 6 7 7 8 9 10 10 10 10 10 10 10 10 10 11 11 10 10 10
1 1 1 1 1 1 1 1 1 1 1 0 1 1 1 1 1 1 1 1 1 1 2 3 3 3 4 5 6 8 9 9 10 10 10 10 10 10 11 11 10 10 10
1 0 0 1 1 1 1 1 1 1 1 0 0 1 1 1 1 1 1 1 1 1 1 2 2 1 1 3 3 4 5 6 8 8 9 10 10 10 11 11 11 11 11
1 0 0 1 1 0 0 0 1 1 1 1 0 1 1 1 1 1 1 1 1 1 1 1 1 2 2 2 2 2 3 3 4 5 7 7 8 8 9 10 11 11 11
2 2 1 1 1 0 1 0 1 1 1 1 1 1 1 1 1 1 1 1 1 1 2 2 2 1 1 2 3 3 3 3 3 3 5 6 6 6 7 9 10 10 10
2 2 1 1 1 0 1 1 1 1 0 1 1 1 1 1 1 1 1 1 1 2 2 2 2 1 1 1 2 3 3 3 3 3 2 2 4 5 6 8 8 9 9
2 2 2 1 1 1 1 1 1 1 1 1 1 2 2 2 1 1 1 1 2 2 1 1 2 1 1 1 1 3 4 3 3 2 1 2 3 4 6 7 8 8 9
2 2 1 1 1 1 1 1 0 1 1 1 1 2 2 2 2 1 0 1 1 2 1 1 1 1 1 1 1 2 3 3 2 0 1 3 3 5 6 7 7 8 9
3 3 2 1 1 1 1 2 1 1 1 1 2 1 1 1 1 2 1 1 1 1 1 1 1 1 1 1 1 3 4 4 3 2 3 3 4 5 6 7 8 8 9
2 3 2 2 2 2 2 2 1 1 1 1 1 1 2 2 2 2 2 1 1 0 1 1 1 1 1 1 2 4 5 5 5 5 5 5 5 6 7 7 7 8 9
2 3 3 2 2 2 2 1 1 1 1 1 1 1 1 2 1 1 2 1 1 0 0 0 0 0 1 1 2 4 6 6 6 6 6 6 7 7 7 7 7 8 9
1 2 3 2 2 2 2 1 0 0 0 1 1 1 1 1 2 2 2 2 1 1 1 1 0 1 1 1 3 4 4 6 7 7 6 6 6 7 8 8 9 8 8
1 2 2 2 3 3 2 1 1 1 0 1 1 1 1 1 1 2 2 2 3 2 2 2 1 1 1 2 3 2 3 5 6 6 6 6 6 7 8 8 9 8 8
2 2 3 3 3 3 3 2 1 1 1 1 1 0 0 1 1 1 2 2 2 2 2 1 1 1 1 2 4 3 3 5 6 5 6 6 6 7 7 8 8 8 7
2 2 2 2 3 3 3 2 2 1 1 1 1 0 1 0 0 1 1 1 2 2 2 1 1 1 1 2 2 2 3 3 3 5 6 6 6 6 6 7 7 6 6
2 2 2 3 3 3 3 3 2 2 1 1 1 1 1 0 0 0 1 1 2 2 2 2 1 1 2 2 3 3 2 3 3 5 6 5 5 5 5 5 5 4 4
3 3 3 3 3 3 3 3 2 2 2 2 2 1 1 0 0 0 1 1 1 1 2 3 2 1 2 2 3 3 3 3 2 3 4 4 4 4 3 3 3 3 3
2 3 3 3 3 3 3 3 2 2 2 2 2 1 1 0 1 1 1 1 2 3 3 3 3 2 2 2 2 2 2 2 2 2 2 2 2 1 1 2 3 3 3
3 2 3 3 3 2 3 3 2 2 2 3 3 3 2 2 1 1 1 2 3 3 3 4 3 2 2 3 2 1 2 2 1 1 1 1 1 0 0 1 3 4 5
3 3 3 3 3 3 4 4 3 2 2 3 3 3 3 3 4 3 3 4 4 5 5 4 3 4 3 3 3 3 3 2 1 1 0 0 0 1 1 2 4 5 5
3 3 3 3 3 3 4 4 4 2 2 2 2 3 3 4 4 4 5 6 5 4 4 4 5 4 4 4 5 4 3 2 1 1 1 0 0 1 2 2 5 6 7
2 2 2 3 3 3 4 4 4 3 3 3 2 2 2 3 3 3 4 5 4 4 3 2 3 3 3 4 4 3 3 2 1 1 1 0 1 1 2 2 4 6 6
2 2 2 3 3 3 3 3 3 2 2 3 3 3 2 3 4 4 5 5 5 4 4 5 3 3 4 4 5 4 3 2 1 0 1 1 1 1 2 2 3 5 6
1 2 2 3 3 3 4 3 3 2 2 2 3 3 4 3 3 3 3 4 4 2 3 4 4 4 3 4 5 3 3 2 1 1 2 2 1 1 1 1 2 2 3
Wind_Direction
211 236 247 233 220 208 209 222 225 228 236 252 254 253 250 249 251 244 257 257 243 238 239 240 231 219 214 214 216 217 215 213 213 212 211 212 211 211 209 204 198 191 187
195 233 251 243 238 224 207 199 216 224 235 234 254 259 256 250 255 253 252 266 268 259 246 239 235 230 223 223 224 225 221 218 217 217 215 213 211 210 208 204 198 195 190
185 209 243 245 248 240 222 208 228 214 230 240 271 265 253 253 264 267 267 260 275 283 267 248 240 234 229 230 229 228 227 224 223 223 220 217 214 212 209 205 201 198 193
196 194 250 261 257 232 194 206 214 212 228 324 310 291 274 260 266 267 273 272 272 288 297 287 260 235 229 233 238 238 235 231 229 227 223 222 218 215 210 206 202 198 193
44 93 279 287 277 236 193 215 194 195 203 208 279 299 313 293 276 285 297 304 289 287 290 325 339 344 251 243 248 254 248 241 235 229 227 225 222 215 210 207 202 196 194
40 55 8 333 8 25 308 172 175 184 206 186 283 350 343 322 325 315 289 316 323 341 34 38 33 27 26 7 335 311 287 261 249 234 227 225 223 215 210 206 200 197 197
39 48 31 11 29 35 313 267 156 160 169 140 89 15 356 21 18 360 4 56 49 60 73 67 63 41 9 357 345 329 311 283 268 246 235 227 217 209 206 200 193 195 195
24 35 29 15 6 359 310 274 160 157 186 151 129 105 336 343 20 13 40 66 50 55 64 66 70 58 17 343 347 347 332 301 274 252 239 206 194 201 201 191 187 186 188
12 14 2 2 5 333 279 267 197 146 203 225 169 163 180 224 277 3 37 53 57 60 47 45 46 43 6 339 327 339 342 317 277 252 205 158 150 170 177 178 177 175 177
5 6 2 6 359 343 307 291 250 185 175 214 216 211 214 191 184 220 353 50 69 67 47 26 7 13 1 352 354 8 5 346 333 257 171 147 148 154 162 163 166 169 173
5 8 12 6 350 338 318 296 268 218 190 209 211 198 212 225 184 180 227 248 38 49 49 16 352 359 360 357 2 38 44 34 40 72 106 119 132 145 156 161 163 165 163
353 356 357 352 332 320 308 292 265 225 206 215 228 205 197 201 195 181 201 217 223 291 26 27 2 0 17 11 26 52 58 57 61 74 92 101 109 121 134 143 151 152 150
340 332 340 332 325 313 320 307 260 257 225 218 227 235 224 224 197 183 182 198 201 168 127 40 16 32 59 53 40 60 64 73 73 75 84 93 102 108 115 127 133 137 138
293 309 324 328 328 330 339 343 200 274 248 234 243 239 243 243 216 201 185 172 179 196 191 185 54 51 67 71 60 65 72 78 81 80 82 87 95 103 106 111 117 122 124
305 328 339 344 349 352 355 12 5 350 337 295 262 243 247 260 218 202 188 187 179 195 219 187 164 84 86 87 77 78 80 80 83 84 87 88 90 96 101 108 112 113 117
348 356 1 3 1 6 10 21 12 358 18 336 315 193 268 273 269 217 194 202 192 184 197 173 157 103 94 90 80 79 77 81 80 90 94 92 92 96 102 107 111 115 118
1 3 3 10 10 11 11 19 12 7 2 341 343 306 284 295 247 244 195 183 181 171 178 161 105 103 103 101 82 74 75 75 79 85 92 96 101 104 105 106 109 113 116
3 7 11 16 15 11 13 20 7 1 359 348 335 344 344 25 83 198 167 170 178 177 168 165 134 126 108 116 103 92 83 84 86 83 86 91 96 99 104 108 113 118 126
9 12 23 14 6 8 14 13 14 7 4 355 343 337 322 348 35 133 158 160 164 154 152 151 140 106 105 116 100 88 85 75 79 90 87 90 96 106 117 129 140 151 157
14 12 18 12 7 8 11 11 20 16 9 3 354 342 333 283 217 175 157 153 141 130 133 139 136 124 118 112 116 121 102 79 69 68 66 73 83 98 142 176 183 186 191
20 16 23 20 17 14 9 11 15 18 20 16 10 6 6 20 76 154 163 152 144 139 140 145 145 138 139 143 148 142 127 107 73 51 51 52 57 60 251 215 212 207 208
19 24 23 22 14 10 15 15 17 22 25 25 13 5 15 33 48 64 100 124 145 154 157 157 156 158 161 158 145 143 139 130 125 107 72 13 68 256 247 232 223 221 223
24 20 9 16 12 4 19 24 25 31 35 25 15 10 30 36 46 68 79 84 86 102 142 161 160 169 173 173 156 154 157 144 153 157 137 311 273 260 256 241 231 230 231
21 10 8 13 13 6 23 33 32 41 44 29 21 26 45 42 52 77 86 80 75 72 89 125 158 166 165 162 160 154 146 128 107 138 179 228 259 266 276 260 242 236 236
17 7 5 12 16 1 10 21 35 49 43 26 26 36 48 59 57 80 90 86 75 62 70 85 106 123 134 146 147 135 138 132 100 137 184 218 258 286 281 270 254 240 243
24 19 16 9 11 360 358 16 47 64 52 35 26 28 39 54 67 82 97 103 96 80 82 83 81 82 107 130 152 163 163 152 142 207 185 196 216 261 287 264 266 259 251